Weather History for Tampa Macdill AFB, FL

Change the Weather History Date:

Thursday, February 21, 2013

  Actual Average Record
Temperature  
Mean Temperature 70 °F -  
Max Temperature 82 °F 72 °F 84 °F (1997)
Min Temperature 57 °F 54 °F 36 °F (2009)
Cooling Degree Days 4    
Growing Degree Days 20 (Base 50)    
Moisture  
Dew Point 63 °F    
Average Humidity 87    
Maximum Humidity 100    
Minimum Humidity 62    
Precipitation  
Precipitation 0.01 in - - ()
Sea Level Pressure  
Sea Level Pressure 30.07 in    
Wind  
Wind Speed 6 mph (ESE)    
Max Wind Speed 12 mph    
Max Gust Speed -    
Visibility 10 miles    
Events      
Averages and records for this station are not official NWS values.
T = Trace of Precipitation, MM = Missing Value Source: NWS Daily Summary

Daily Weather History Graph

Daily Weather History Graph

Search for Another Location

Airport:

Trip Planner

Search our weather history database for the weather conditions in past years. The results will help you decide how hot, cold, wet, or windy it might be!

Date:

Astronomy

Feb. 21, 2013 Rise Set
Actual Time 7:02 AM EST 6:25 PM EST
Civil Twilight 6:38 AM EST 6:49 PM EST
Nautical Twilight 6:11 AM EST 7:16 PM EST
Astronomical Twilight 5:43 AM EST 7:43 PM EST
Moon 2:52 PM EST (2/21) 3:52 AM EST (2/21)
Length of Visible Light 12h 10m
Length of Day
11h 23m
Waxing Gibbous, 83% of the Moon is Illuminated
Feb 21
Waxing Gibbous
Feb 25
Full
Mar 4
Last Quarter
Mar 11
New
Mar 19
First Quarter

Hourly Weather History & Observations

Time (EST) Temp. Heat Index Dew Point Humidity Pressure Visibility Wind Dir Wind Speed Gust Speed Precip Events Conditions
12:58 AM 57.2 °F - 55.4 °F 94% 30.07 in 10.0 mi East 4.6 mph - N/A   Clear
1:58 AM 59.0 °F - 59.0 °F 100% 30.06 in 10.0 mi East 6.9 mph - N/A   Clear
2:58 AM 59.0 °F - 59.0 °F 100% 30.06 in 10.0 mi East 6.9 mph - N/A   Clear
3:58 AM 59.0 °F - 59.0 °F 100% 30.05 in 10.0 mi East 8.1 mph - N/A   Clear
4:58 AM 59.0 °F - 59.0 °F 100% 30.06 in 10.0 mi East 8.1 mph - N/A   Clear
5:58 AM 59.0 °F - 59.0 °F 100% 30.06 in 10.0 mi East 8.1 mph - N/A   Clear
6:58 AM 59.0 °F - 59.0 °F 100% 30.08 in 10.0 mi East 8.1 mph - N/A   Clear
7:58 AM 60.8 °F - 60.8 °F 100% 30.10 in 10.0 mi East 10.4 mph - N/A   Clear
8:58 AM 64.4 °F - 62.6 °F 94% 30.12 in 10.0 mi East 11.5 mph - N/A   Clear
9:58 AM 69.8 °F - 64.4 °F 83% 30.13 in 6.0 mi East 6.9 mph - 0.01 in   Haze
10:58 AM 75.2 °F - 66.2 °F 73% 30.13 in 10.0 mi South 8.1 mph - N/A   Clear
11:58 AM 77.0 °F - 68.0 °F 74% 30.11 in 10.0 mi South 5.8 mph - N/A   Clear
12:58 PM 80.6 °F 83.2 °F 68.0 °F 65% 30.08 in 10.0 mi South 4.6 mph - N/A   Clear
1:58 PM 82.4 °F 85.4 °F 68.0 °F 62% 30.06 in 10.0 mi WNW 4.6 mph - N/A   Scattered Clouds
2:58 PM 80.6 °F 83.2 °F 68.0 °F 65% 30.04 in 10.0 mi WSW 5.8 mph - N/A   Clear
3:58 PM 80.6 °F 83.2 °F 68.0 °F 65% 30.03 in 10.0 mi West 11.5 mph - N/A   Clear
4:58 PM 77.0 °F - 68.0 °F 74% 30.02 in 10.0 mi WNW 11.5 mph - N/A   Clear
5:58 PM 73.4 °F - 66.2 °F 78% 30.02 in 10.0 mi WNW 6.9 mph - N/A   Clear
6:58 PM 69.8 °F - 66.2 °F 88% 30.03 in 10.0 mi NW 5.8 mph - N/A   Clear
7:58 PM 68.0 °F - 64.4 °F 88% 30.04 in 10.0 mi WNW 5.8 mph - N/A   Clear
8:58 PM 64.4 °F - 62.6 °F 94% 30.05 in 10.0 mi Calm Calm - N/A   Clear
9:58 PM 64.4 °F - 60.8 °F 88% 30.06 in 10.0 mi Calm Calm - N/A   Partly Cloudy
10:58 PM 62.6 °F - 62.6 °F 100% 30.06 in 10.0 mi Calm Calm - N/A   Scattered Clouds
11:58 PM 64.4 °F - 64.4 °F 100% 30.06 in 10.0 mi Calm Calm - N/A   Partly Cloudy